Location: ??????
(55.2000°N, 38.3000°E)
Time: 09:07:44
(UTC+00:00)

Cosmos 1943 - Pass Details

Date: 15 November 2025
Orbit: 832 x 848 km, 71.0° (Epoch: 14 December)

Event Time Altitude Azimuth Distance (km) Brightness Sun altitude
Rises 03:43:33 0° 202° (SSW) 3,368 6.3 -10.7°
Reaches altitude 10° 03:45:59 10° 199° (SSW) 2,437 5.6 -10.3°
Maximum altitude 03:51:31 68° 118° (ESE) 897 3.6 -9.6°
Drops below altitude 10° 03:57:06 10° 37° (NE) 2,454 5.8 -8.8°
Sets 03:59:33 0° 35° (NE) 3,394 6.5 -8.5°
